Redwood City, CA

5:10 AM PST on February 09, 2016 (GMT -0800)
San Carlos

Weather History for KSQL - February, 2014

Change the Weather History Date:

Monday, February 17, 2014

  Actual Average Record
Temperature  
Mean Temperature 50 °F -  
Max Temperature 59 °F 62 °F 76 °F (1977)
Min Temperature 42 °F 42 °F 32 °F (1956)
Degree Days  
Heating Degree Days 14    
Moisture  
Dew Point 43 °F    
Average Humidity 78    
Maximum Humidity 87    
Minimum Humidity 48    
Precipitation  
Precipitation 0.00 in - - ()
Sea Level Pressure  
Sea Level Pressure 30.15 in    
Wind  
Wind Speed 4 mph (WNW)    
Max Wind Speed 13 mph    
Max Gust Speed -    
Visibility 10 miles    
Events      
Averages and records for this station are not official NWS values.
T = Trace of Precipitation, MM = Missing Value Source: NWS Daily Summary

Daily Weather History Graph

Daily Weather History Graph

Search for Another Location

Airport or City:

Trip Planner

Search our weather history database for the weather conditions in past years. The results will help you decide how hot, cold, wet, or windy it might be!

Date:

Astronomy

Feb. 17, 2014 Rise Set
Actual Time 6:55 AM PST 5:50 PM PST
Civil Twilight 6:29 AM PST 6:17 PM PST
Nautical Twilight 5:58 AM PST 6:47 PM PST
Astronomical Twilight 5:28 AM PST 7:18 PM PST
Moon 8:45 PM PST (2/17) 8:03 AM PST (2/17)
Length of Visible Light 11h 48m
Length of Day
10h 54m
Waning Gibbous, 93% of the Moon is Illuminated
Feb 17
Waning Gibbous
Feb 22
Last Quarter
Mar 1
New
Mar 8
First Quarter
Mar 16
Full

Hourly Weather History & Observations

Time (PST) Temp. Windchill Dew Point Humidity Pressure Visibility Wind Dir Wind Speed Gust Speed Precip Events Conditions
12:15 AM 46.4 °F 45.2 °F 41.0 °F 81% 30.13 in 10.0 mi South 3.5 mph - N/A   Clear
12:30 AM 46.4 °F 45.2 °F 41.0 °F 81% 30.13 in 10.0 mi SSW 3.5 mph - N/A   Clear
12:50 AM 46.4 °F - 41.0 °F 81% 30.14 in 10.0 mi Calm Calm - N/A   Clear
1:10 AM 46.4 °F 43.5 °F 41.0 °F 81% 30.14 in 10.0 mi NW 5.8 mph - N/A   Clear
1:30 AM 46.4 °F 44.3 °F 41.0 °F 81% 30.14 in 10.0 mi NW 4.6 mph - N/A   Clear
1:50 AM 46.4 °F - 41.0 °F 81% 30.14 in 10.0 mi Calm Calm - N/A   Clear
2:10 AM 46.4 °F 44.3 °F 41.0 °F 81% 30.14 in 10.0 mi NW 4.6 mph - N/A   Clear
2:35 AM 46.4 °F 44.3 °F 41.0 °F 81% 30.14 in 10.0 mi WNW 4.6 mph - N/A   Clear
2:50 AM 46.4 °F - 41.0 °F 81% 30.13 in 10.0 mi Calm Calm - N/A   Clear
3:10 AM 44.6 °F - 39.2 °F 81% 30.13 in 10.0 mi Calm Calm - N/A   Clear
3:35 AM 44.6 °F - 39.2 °F 81% 30.12 in 10.0 mi Calm Calm - N/A   Clear
3:50 AM 44.6 °F 42.2 °F 39.2 °F 81% 30.13 in 10.0 mi WSW 4.6 mph - N/A   Clear
4:10 AM 44.6 °F - 41.0 °F 87% 30.13 in 10.0 mi Calm Calm - N/A   Clear
4:35 AM 44.6 °F - 41.0 °F 87% 30.14 in 10.0 mi Calm Calm - N/A   Clear
4:50 AM 44.6 °F - 41.0 °F 87% 30.13 in 10.0 mi Calm Calm - N/A   Clear
5:10 AM 42.8 °F 41.1 °F 39.2 °F 87% 30.12 in 10.0 mi South 3.5 mph - N/A   Clear
5:30 AM 44.6 °F 42.2 °F 41.0 °F 87% 30.11 in 10.0 mi SSW 4.6 mph - N/A   Clear
5:55 AM 44.6 °F - 41.0 °F 87% 30.12 in 10.0 mi Calm Calm - N/A   Clear
6:10 AM 44.6 °F 43.1 °F 41.0 °F 87% 30.12 in 10.0 mi WNW 3.5 mph - N/A   Clear
6:30 AM 44.6 °F 42.2 °F 41.0 °F 87% 30.12 in 10.0 mi WNW 4.6 mph - N/A   Clear
6:52 AM 44.6 °F - 41.0 °F 87% 30.13 in 10.0 mi Calm Calm - N/A   Scattered Clouds
6:55 AM 44.6 °F - 41.0 °F 87% 30.13 in 10.0 mi Calm Calm - N/A   Clear
7:47 AM 46.4 °F 43.5 °F 41.0 °F 81% 30.17 in 10.0 mi NW 5.8 mph - N/A   Mostly Cloudy
8:47 AM 51.8 °F - 41.0 °F 67% 30.18 in 10.0 mi WNW 8.1 mph - N/A   Mostly Cloudy
9:47 AM 55.4 °F - 39.2 °F 54% 30.19 in 10.0 mi WNW 12.7 mph - N/A   Mostly Cloudy
10:47 AM 55.4 °F - 44.6 °F 67% 30.20 in 10.0 mi North 6.9 mph - N/A   Mostly Cloudy
11:48 AM 55.4 °F - 44.6 °F 67% 30.18 in 10.0 mi NNE 5.8 mph - N/A   Mostly Cloudy
12:47 PM 59.0 °F - 39.2 °F 48% 30.16 in 10.0 mi WNW 8.1 mph - N/A   Mostly Cloudy
1:47 PM 59.0 °F - 39.2 °F 48% 30.15 in 10.0 mi WNW 9.2 mph - N/A   Mostly Cloudy
2:47 PM 59.0 °F - 42.8 °F 55% 30.14 in 10.0 mi NW 3.5 mph - N/A   Overcast
3:47 PM 59.0 °F - 44.6 °F 59% 30.14 in 10.0 mi NW 11.5 mph - N/A   Mostly Cloudy
4:47 PM 57.2 °F - 44.6 °F 63% 30.15 in 10.0 mi WNW 11.5 mph - N/A   Mostly Cloudy
5:50 PM 55.4 °F - 46.4 °F 72% 30.16 in 10.0 mi West 9.2 mph - N/A   Mostly Cloudy
6:47 PM 53.6 °F - 48.2 °F 82% 30.17 in 10.0 mi West 5.8 mph - N/A   Mostly Cloudy
7:47 PM 53.6 °F - 46.4 °F 77% 30.18 in 10.0 mi West 6.9 mph - N/A   Partly Cloudy
8:53 PM 53.6 °F - 46.4 °F 77% 30.18 in 10.0 mi West 4.6 mph - N/A   Partly Cloudy
9:10 PM 53.6 °F - 46.4 °F 77% 30.18 in 10.0 mi WNW 4.6 mph - N/A   Clear
9:35 PM 53.6 °F - 46.4 °F 77% 30.19 in 10.0 mi WNW 4.6 mph - N/A   Clear
9:50 PM 51.8 °F - 46.4 °F 82% 30.19 in 10.0 mi Calm Calm - N/A   Clear
10:10 PM 51.8 °F - 46.4 °F 82% 30.19 in 10.0 mi Calm Calm - N/A   Clear
10:30 PM 50.0 °F - 46.4 °F 87% 30.19 in 10.0 mi Calm Calm - N/A   Clear
10:50 PM 50.0 °F - 46.4 °F 87% 30.19 in 10.0 mi WNW 4.6 mph - N/A   Clear
11:10 PM 51.8 °F - 46.4 °F 82% 30.19 in 10.0 mi WNW 4.6 mph - N/A   Clear
11:35 PM 50.0 °F - 46.4 °F 87% 30.18 in 10.0 mi NW 3.5 mph - N/A   Clear
11:50 PM 50.0 °F - 46.4 °F 87% 30.19 in 10.0 mi WNW 3.5 mph - N/A   Clear